TimeEST,TemperatureF,Dew PointF,Humidity,Sea Level PressureIn,VisibilityMPH,Wind Direction,Wind SpeedMPH,Gust SpeedMPH,PrecipitationIn,Events,Conditions,WindDirDegrees,DateUTC
12:15 AM,41.0,33.8,76,30.08,10.0,SSW,15.0,24.2,N/A,,Overcast,210,2012-12-13 05:15:00
12:34 AM,41.0,33.8,76,30.09,10.0,SW,17.3,25.3,N/A,,Overcast,220,2012-12-13 05:34:00
12:55 AM,41.0,32.0,70,30.09,10.0,SW,15.0,21.9,N/A,,Overcast,220,2012-12-13 05:55:00
1:14 AM,41.0,30.2,65,30.09,10.0,SW,17.3,26.5,N/A,,Overcast,220,2012-12-13 06:14:00
1:35 AM,41.0,30.2,65,30.09,10.0,SW,15.0,23.0,N/A,,Overcast,220,2012-12-13 06:35:00
1:55 AM,39.2,30.2,70,30.10,10.0,SW,11.5,26.5,N/A,,Overcast,220,2012-12-13 06:55:00
2:14 AM,39.2,28.4,65,30.09,10.0,SW,11.5,19.6,N/A,,Overcast,220,2012-12-13 07:14:00
2:35 AM,39.2,30.2,70,30.09,10.0,SW,10.4,18.4,N/A,,Overcast,220,2012-12-13 07:35:00
2:54 AM,39.2,30.2,70,30.09,10.0,SW,10.4,20.7,N/A,,Mostly Cloudy,220,2012-12-13 07:54:00
3:15 AM,39.2,30.2,70,30.08,10.0,SSW,13.8,20.7,N/A,,Overcast,210,2012-12-13 08:15:00
3:34 AM,39.2,30.2,70,30.08,10.0,SSW,15.0,20.7,N/A,,Scattered Clouds,210,2012-12-13 08:34:00
3:54 AM,39.2,30.2,70,30.07,10.0,SSW,15.0,19.6,N/A,,Mostly Cloudy,210,2012-12-13 08:54:00
4:15 AM,39.2,30.2,70,30.07,10.0,SSW,13.8,20.7,N/A,,Scattered Clouds,210,2012-12-13 09:15:00
4:34 AM,39.2,30.2,70,30.06,10.0,SSW,11.5,21.9,N/A,,Mostly Cloudy,210,2012-12-13 09:34:00
4:55 AM,39.2,30.2,70,30.05,10.0,SSW,15.0,25.3,N/A,,Mostly Cloudy,210,2012-12-13 09:55:00
5:14 AM,39.2,30.2,70,30.05,10.0,SW,12.7,19.6,N/A,,Overcast,220,2012-12-13 10:14:00
5:35 AM,39.2,30.2,70,30.05,10.0,SW,11.5,18.4,N/A,,Overcast,220,2012-12-13 10:35:00
5:55 AM,39.2,30.2,70,30.05,10.0,SW,12.7,19.6,N/A,,Mostly Cloudy,220,2012-12-13 10:55:00
6:14 AM,37.4,30.2,75,30.04,10.0,SSW,11.5,18.4,N/A,,Mostly Cloudy,210,2012-12-13 11:14:00
6:35 AM,37.4,28.4,70,30.05,10.0,SW,12.7,18.4,N/A,,Mostly Cloudy,220,2012-12-13 11:35:00
6:54 AM,37.4,28.4,70,30.05,10.0,SW,10.4,18.4,N/A,,Mostly Cloudy,220,2012-12-13 11:54:00
7:15 AM,37.4,28.4,70,30.05,10.0,SW,8.1,-,N/A,,Mostly Cloudy,220,2012-12-13 12:15:00
7:34 AM,37.4,28.4,70,30.05,10.0,SSW,9.2,-,N/A,,Overcast,210,2012-12-13 12:34:00
7:55 AM,37.4,28.4,70,30.05,10.0,SSW,8.1,-,N/A,,Overcast,210,2012-12-13 12:55:00
8:15 AM,37.4,28.4,70,30.05,10.0,SSW,10.4,-,N/A,,Overcast,210,2012-12-13 13:15:00
8:34 AM,37.4,28.4,70,30.05,10.0,SW,10.4,16.1,N/A,,Overcast,220,2012-12-13 13:34:00
8:55 AM,37.4,28.4,70,30.05,10.0,SSW,11.5,16.1,N/A,,Overcast,210,2012-12-13 13:55:00
9:14 AM,37.4,28.4,70,30.05,10.0,SSW,9.2,-,N/A,,Mostly Cloudy,210,2012-12-13 14:14:00
9:34 AM,37.4,28.4,70,30.04,10.0,SSW,9.2,-,N/A,,Mostly Cloudy,210,2012-12-13 14:34:00
9:54 AM,37.4,28.4,70,30.04,10.0,SSW,10.4,-,N/A,,Overcast,210,2012-12-13 14:54:00
10:15 AM,37.4,28.4,70,30.05,10.0,SSW,9.2,-,N/A,,Overcast,210,2012-12-13 15:15:00
10:35 AM,39.2,28.4,65,30.05,10.0,SSW,10.4,-,N/A,,Scattered Clouds,210,2012-12-13 15:35:00
10:54 AM,39.2,28.4,65,30.05,10.0,SW,9.2,18.4,N/A,,Scattered Clouds,220,2012-12-13 15:54:00
11:15 AM,39.2,28.4,65,30.04,10.0,SW,8.1,-,N/A,,Mostly Cloudy,220,2012-12-13 16:15:00
11:34 AM,39.2,28.4,65,30.04,10.0,SW,9.2,-,N/A,,Scattered Clouds,220,2012-12-13 16:34:00
11:55 AM,39.2,28.4,65,30.04,10.0,SW,9.2,-,N/A,,Scattered Clouds,230,2012-12-13 16:55:00
12:14 PM,39.2,28.4,65,30.03,10.0,SW,8.1,-,N/A,,Scattered Clouds,220,2012-12-13 17:14:00
12:34 PM,39.2,26.6,61,30.02,10.0,SW,10.4,16.1,N/A,,Scattered Clouds,220,2012-12-13 17:34:00
12:55 PM,39.2,28.4,65,30.01,10.0,SW,8.1,-,N/A,,Mostly Cloudy,230,2012-12-13 17:55:00
1:14 PM,39.2,28.4,65,30.00,10.0,SSW,9.2,-,N/A,,Scattered Clouds,210,2012-12-13 18:14:00
1:35 PM,39.2,28.4,65,30.00,10.0,SW,8.1,-,N/A,,Scattered Clouds,220,2012-12-13 18:35:00
1:55 PM,39.2,28.4,65,29.99,10.0,SW,5.8,-,N/A,,Mostly Cloudy,220,2012-12-13 18:55:00
2:14 PM,39.2,28.4,65,29.98,10.0,SSW,10.4,-,N/A,,Overcast,210,2012-12-13 19:14:00
2:35 PM,39.2,28.4,65,29.98,10.0,SSW,12.7,20.7,N/A,,Scattered Clouds,210,2012-12-13 19:35:00
2:54 PM,39.2,26.6,61,29.98,10.0,SW,11.5,19.6,N/A,,Clear,220,2012-12-13 19:54:00
3:15 PM,37.4,26.6,65,29.98,10.0,SW,11.5,17.3,N/A,,Clear,220,2012-12-13 20:15:00
3:35 PM,37.4,28.4,70,29.99,10.0,SW,3.5,-,N/A,,Clear,230,2012-12-13 20:35:00
3:54 PM,37.4,26.6,65,29.98,10.0,WSW,6.9,-,N/A,,Clear,240,2012-12-13 20:54:00
4:15 PM,37.4,26.6,65,29.99,10.0,SW,4.6,-,N/A,,Clear,230,2012-12-13 21:15:00
4:34 PM,37.4,26.6,65,29.99,10.0,WSW,5.8,-,N/A,,Clear,240,2012-12-13 21:34:00
4:55 PM,35.6,26.6,70,29.99,10.0,WSW,4.6,-,N/A,,Clear,250,2012-12-13 21:55:00
5:34 PM,35.6,26.6,70,30.00,10.0,WSW,4.6,-,N/A,,Clear,250,2012-12-13 22:34:00
8:15 PM,30.2,24.8,80,30.03,10.0,West,3.5,-,N/A,,Clear,260,2012-12-14 01:15:00
8:35 PM,28.4,24.8,86,30.04,10.0,Calm,Calm,-,N/A,,Clear,0,2012-12-14 01:35:00
9:15 PM,28.4,24.8,86,30.04,10.0,West,3.5,-,N/A,,Clear,280,2012-12-14 02:15:00
9:34 PM,28.4,24.8,86,30.04,10.0,WNW,5.8,-,N/A,,Mostly Cloudy,290,2012-12-14 02:34:00
9:55 PM,30.2,26.6,86,30.04,10.0,WNW,4.6,-,N/A,,Overcast,300,2012-12-14 02:55:00
10:15 PM,32.0,26.6,80,30.04,10.0,NNW,6.9,-,N/A,,Overcast,330,2012-12-14 03:15:00
10:34 PM,32.0,26.6,80,30.05,10.0,NW,4.6,-,N/A,,Overcast,320,2012-12-14 03:34:00
10:55 PM,32.0,26.6,80,30.05,10.0,NNW,3.5,-,N/A,,Overcast,330,2012-12-14 03:55:00
11:14 PM,30.2,26.6,86,30.07,10.0,NNW,4.6,-,N/A,,Overcast,330,2012-12-14 04:14:00
11:35 PM,30.2,26.6,86,30.07,10.0,NNW,3.5,-,N/A,,Mostly Cloudy,340,2012-12-14 04:35:00
11:55 PM,30.2,28.4,93,30.08,10.0,NNW,4.6,-,N/A,,Overcast,330,2012-12-14 04:55:00